Погода в Районге

Таиланд     12°40′11″N   101°15′31″E
темп.,
°C
ветер,
м/с
пор.,
м/с
влажн.,
%
обл.,
%
осадки,
мм/ч
давл.,
гПа
погр.,
м
11 мая, вт
вт1101:00+28ю347616 0.6 1007400
04:00+28ююз237879 0.4 1006348
07:00+29ююз237489 0.6 1008493
10:00+33ю335369 0.4 10091373
13:00+34ю534951 0.4 10071642
16:00+33ю445398 0.0 10051273
19:00+30ююв45665 0.0 1006406
22:00+29ю457010 0.0 1008439
12 мая, ср
ср1201:00+29ю36755 0.0 1006449
04:00+28ююз347610 0.0 1006396
07:00+29ююз34739 0.4 1008698
10:00+33ю44555 0.0 10091251
13:00+34ю544921 0.0 10061495
16:00+33ю43535 0.0 10051310
19:00+30ююв45670 0.0 1005407
22:00+29ю35715 0.0 1007382
13 мая, чт
чт1301:00+28ю35735 0.0 1006397
04:00+28ю35745 0.0 1005364
07:00+29ю347119 0.0 1007638
10:00+33ю44559 0.0 10081236
13:00+34ю54495 0.0 10061471
16:00+33ю43525 0.0 10041255
19:00+30ююв456443 0.0 1005336
22:00+29ююв356758 0.0 1006349
14 мая, пт
пт1401:00+29ю34708 0.0 1005343
04:00+28ю247399 0.0 1004381
07:00+29ю247110 0.0 1006544
10:00+33ю445560 0.0 10071274
13:00+34ююз545124 0.0 10051549
16:00+33ю445553 0.0 10041232
19:00+30ююв45675 0.0 1005396
22:00+29ю46715 0.0 1006414
15 мая, сб
сб1501:00+29ю35735 0.1 1005444
04:00+28ю34765 0.1 1004384
07:00+30ююз247328 0.6 1006622
10:00+33ю43555 0.0 10071220
13:00+35ю535038 0.0 10051738
16:00+33ю54555 0.1 10041181
19:00+30ююв456678 0.1 1005406
22:00